Time,TemperatureF,DewpointF,PressureIn,WindDirection,WindDirectionDegrees,WindSpeedMPH,WindSpeedGustMPH,Humidity,HourlyPrecipIn,Conditions,Clouds,dailyrainin,SoftwareType,DateUTC
2013-01-07 00:05:00,11.8,7.0,29.97,NE,46,2.0,5.0,80,0.00,,,0.00,weatherlink.com 1.10,2013-01-07 06:05:00,
2013-01-07 00:20:00,12.3,8.0,29.97,NE,44,0.0,4.0,81,0.00,,,0.00,weatherlink.com 1.10,2013-01-07 06:20:00,
2013-01-07 00:35:00,12.8,8.0,29.95,ENE,63,2.0,6.0,82,0.00,,,0.00,weatherlink.com 1.10,2013-01-07 06:35:00,
2013-01-07 00:50:00,13.6,9.0,29.94,NNE,33,1.0,8.0,82,0.00,,,0.00,weatherlink.com 1.10,2013-01-07 06:50:00,
2013-01-07 01:05:00,14.1,10.0,29.93,NNE,30,3.0,9.0,83,0.00,,,0.00,weatherlink.com 1.10,2013-01-07 07:05:00,
2013-01-07 01:20:00,14.4,10.0,29.91,North,6,4.0,8.0,83,0.00,,,0.00,weatherlink.com 1.10,2013-01-07 07:20:00,
2013-01-07 01:35:00,14.9,11.0,29.89,NNE,20,2.0,10.0,84,0.00,,,0.00,weatherlink.com 1.10,2013-01-07 07:35:00,
2013-01-07 01:50:00,14.8,11.0,29.88,North,355,2.0,7.0,85,0.00,,,0.00,weatherlink.com 1.10,2013-01-07 07:50:00,
2013-01-07 02:05:00,14.6,11.0,29.86,NE,36,4.0,10.0,85,0.00,,,0.00,weatherlink.com 1.10,2013-01-07 08:05:00,
2013-01-07 02:20:00,14.7,11.0,29.87,East,94,0.0,9.0,85,0.00,,,0.00,weatherlink.com 1.10,2013-01-07 08:20:00,
2013-01-07 02:35:00,14.3,11.0,29.86,East,80,0.0,8.0,85,0.00,,,0.00,weatherlink.com 1.10,2013-01-07 08:35:00,
2013-01-07 02:50:00,14.0,11.0,29.85,ESE,121,0.0,7.0,86,0.00,,,0.00,weatherlink.com 1.10,2013-01-07 08:50:00,
2013-01-07 03:05:00,13.5,10.0,29.85,ENE,77,0.0,7.0,86,0.00,,,0.00,weatherlink.com 1.10,2013-01-07 09:05:00,
2013-01-07 03:20:00,13.2,10.0,29.84,East,80,1.0,5.0,87,0.00,,,0.00,weatherlink.com 1.10,2013-01-07 09:20:00,
2013-01-07 03:35:00,12.9,10.0,29.84,NE,55,0.0,4.0,87,0.00,,,0.00,weatherlink.com 1.10,2013-01-07 09:35:00,
2013-01-07 03:50:00,12.7,10.0,29.82,ENE,69,1.0,3.0,88,0.00,,,0.00,weatherlink.com 1.10,2013-01-07 09:50:00,
2013-01-07 04:05:00,12.6,10.0,29.82,East,88,0.0,4.0,88,0.00,,,0.00,weatherlink.com 1.10,2013-01-07 10:05:00,
2013-01-07 04:20:00,12.7,10.0,29.81,ENE,75,1.0,6.0,89,0.00,,,0.00,weatherlink.com 1.10,2013-01-07 10:20:00,
2013-01-07 04:36:00,12.8,10.0,29.80,NE,45,1.0,5.0,89,0.00,,,0.00,weatherlink.com 1.10,2013-01-07 10:36:00,
2013-01-07 04:51:00,12.9,11.0,29.80,ESE,110,0.0,8.0,90,0.00,,,0.00,weatherlink.com 1.10,2013-01-07 10:51:00,
2013-01-07 05:06:00,13.9,12.0,29.80,ESE,104,2.0,6.0,90,0.00,,,0.00,weatherlink.com 1.10,2013-01-07 11:06:00,
2013-01-07 05:21:00,14.2,12.0,29.79,East,96,2.0,4.0,89,0.00,,,0.00,weatherlink.com 1.10,2013-01-07 11:21:00,
2013-01-07 05:36:00,14.5,12.0,29.79,NNW,334,0.0,6.0,90,0.00,,,0.00,weatherlink.com 1.10,2013-01-07 11:36:00,
2013-01-07 05:51:00,14.8,12.0,29.79,East,88,1.0,6.0,89,0.00,,,0.00,weatherlink.com 1.10,2013-01-07 11:51:00,
2013-01-07 06:06:00,14.9,12.0,29.78,NE,46,2.0,7.0,89,0.00,,,0.00,weatherlink.com 1.10,2013-01-07 12:06:00,
2013-01-07 06:21:00,15.1,13.0,29.76,NNW,339,1.0,6.0,90,0.00,,,0.00,weatherlink.com 1.10,2013-01-07 12:21:00,
2013-01-07 06:36:00,15.5,13.0,29.76,East,98,1.0,8.0,90,0.00,,,0.00,weatherlink.com 1.10,2013-01-07 12:36:00,
2013-01-07 06:51:00,16.1,14.0,29.76,East,91,0.0,5.0,90,0.00,,,0.00,weatherlink.com 1.10,2013-01-07 12:51:00,
2013-01-07 07:06:00,16.7,14.0,29.77,East,88,1.0,6.0,89,0.00,,,0.00,weatherlink.com 1.10,2013-01-07 13:06:00,
2013-01-07 07:21:00,17.0,14.0,29.77,East,100,3.0,5.0,89,0.00,,,0.00,weatherlink.com 1.10,2013-01-07 13:21:00,
2013-01-07 07:36:00,17.2,15.0,29.78,SE,146,3.0,8.0,89,0.00,,,0.00,weatherlink.com 1.10,2013-01-07 13:36:00,
2013-01-07 07:51:00,17.3,15.0,29.77,ESE,108,0.0,3.0,89,0.00,,,0.00,weatherlink.com 1.10,2013-01-07 13:51:00,
2013-01-07 08:06:00,17.3,15.0,29.77,ENE,63,1.0,4.0,89,0.00,,,0.00,weatherlink.com 1.10,2013-01-07 14:06:00,
2013-01-07 08:21:00,17.3,15.0,29.76,ENE,77,0.0,3.0,89,0.00,,,0.00,weatherlink.com 1.10,2013-01-07 14:21:00,
2013-01-07 08:36:00,17.6,15.0,29.77,ESE,110,0.0,4.0,89,0.00,,,0.00,weatherlink.com 1.10,2013-01-07 14:36:00,
2013-01-07 08:51:00,18.2,16.0,29.77,East,83,2.0,5.0,89,0.00,,,0.00,weatherlink.com 1.10,2013-01-07 14:51:00,
2013-01-07 09:06:00,19.0,16.0,29.77,SE,131,1.0,3.0,89,0.00,,,0.00,weatherlink.com 1.10,2013-01-07 15:06:00,
2013-01-07 09:21:00,19.7,17.0,29.77,ESE,115,3.0,6.0,88,0.00,,,0.00,weatherlink.com 1.10,2013-01-07 15:21:00,
2013-01-07 09:36:00,20.3,17.0,29.78,East,87,0.0,5.0,87,0.00,,,0.00,weatherlink.com 1.10,2013-01-07 15:36:00,
2013-01-07 09:51:00,20.9,18.0,29.79,ESE,110,1.0,4.0,87,0.00,,,0.00,weatherlink.com 1.10,2013-01-07 15:51:00,
2013-01-07 10:06:00,21.5,18.0,29.79,East,100,1.0,3.0,86,0.00,,,0.00,weatherlink.com 1.10,2013-01-07 16:06:00,
2013-01-07 10:21:00,22.3,19.0,29.78,ESE,118,0.0,7.0,85,0.00,,,0.00,weatherlink.com 1.10,2013-01-07 16:21:00,
2013-01-07 10:36:00,23.5,19.0,29.77,NW,319,2.0,7.0,84,0.00,,,0.00,weatherlink.com 1.10,2013-01-07 16:36:00,
2013-01-07 10:51:00,25.1,20.0,29.77,ESE,110,1.0,7.0,82,0.00,,,0.00,weatherlink.com 1.10,2013-01-07 16:51:00,
2013-01-07 11:06:00,26.7,22.0,29.76,East,101,3.0,6.0,81,0.00,,,0.00,weatherlink.com 1.10,2013-01-07 17:06:00,
2013-01-07 11:22:00,28.1,22.0,29.75,ENE,63,4.0,7.0,79,0.00,,,0.00,weatherlink.com 1.10,2013-01-07 17:22:00,
2013-01-07 11:37:00,29.3,23.0,29.75,East,88,1.0,7.0,78,0.00,,,0.00,weatherlink.com 1.10,2013-01-07 17:37:00,
2013-01-07 11:52:00,30.4,24.0,29.75,SE,124,5.0,11.0,76,0.00,,,0.00,weatherlink.com 1.10,2013-01-07 17:52:00,
2013-01-07 12:07:00,31.3,24.0,29.74,ESE,103,2.0,7.0,74,0.00,,,0.00,weatherlink.com 1.10,2013-01-07 18:07:00,
2013-01-07 12:37:00,33.0,25.0,29.73,SE,127,6.0,12.0,71,0.00,,,0.00,weatherlink.com 1.10,2013-01-07 18:37:00,
2013-01-07 12:52:00,34.1,25.0,29.73,ESE,119,6.0,8.0,70,0.00,,,0.00,weatherlink.com 1.10,2013-01-07 18:52:00,
2013-01-07 13:07:00,35.0,25.0,29.73,ESE,110,2.0,8.0,68,0.00,,,0.00,weatherlink.com 1.10,2013-01-07 19:07:00,
2013-01-07 13:22:00,35.5,25.0,29.73,SE,134,2.0,11.0,66,0.00,,,0.00,weatherlink.com 1.10,2013-01-07 19:22:00,
2013-01-07 13:37:00,35.1,25.0,29.73,SSE,155,3.0,13.0,66,0.01,,,0.01,weatherlink.com 1.10,2013-01-07 19:37:00,
2013-01-07 13:52:00,35.0,25.0,29.74,ESE,121,4.0,12.0,67,0.01,,,0.01,weatherlink.com 1.10,2013-01-07 19:52:00,
2013-01-07 14:07:00,34.7,25.0,29.74,SE,129,2.0,12.0,69,0.02,,,0.02,weatherlink.com 1.10,2013-01-07 20:07:00,
2013-01-07 14:22:00,34.8,26.0,29.74,East,86,3.0,8.0,69,0.02,,,0.02,weatherlink.com 1.10,2013-01-07 20:22:00,
2013-01-07 14:37:00,34.5,25.0,29.75,ESE,122,6.0,10.0,69,0.01,,,0.02,weatherlink.com 1.10,2013-01-07 20:37:00,
2013-01-07 14:52:00,34.3,25.0,29.74,SE,139,4.0,11.0,70,0.01,,,0.02,weatherlink.com 1.10,2013-01-07 20:52:00,
2013-01-07 15:07:00,34.3,26.0,29.75,East,93,6.0,10.0,71,0.00,,,0.02,weatherlink.com 1.10,2013-01-07 21:07:00,
2013-01-07 15:22:00,34.4,26.0,29.76,SE,136,3.0,10.0,70,0.00,,,0.02,weatherlink.com 1.10,2013-01-07 21:22:00,
2013-01-07 15:37:00,34.3,26.0,29.77,SE,127,2.0,8.0,71,0.00,,,0.02,weatherlink.com 1.10,2013-01-07 21:37:00,
2013-01-07 15:52:00,34.0,25.0,29.77,SE,134,2.0,9.0,70,0.00,,,0.02,weatherlink.com 1.10,2013-01-07 21:52:00,
2013-01-07 16:07:00,33.7,25.0,29.77,ESE,113,5.0,9.0,70,0.00,,,0.02,weatherlink.com 1.10,2013-01-07 22:07:00,
2013-01-07 16:22:00,33.1,24.0,29.79,ESE,108,1.0,10.0,70,0.00,,,0.02,weatherlink.com 1.10,2013-01-07 22:22:00,
2013-01-07 16:37:00,32.5,24.0,29.79,ESE,119,2.0,8.0,71,0.00,,,0.02,weatherlink.com 1.10,2013-01-07 22:37:00,
2013-01-07 16:52:00,31.8,24.0,29.80,ESE,114,3.0,7.0,72,0.00,,,0.02,weatherlink.com 1.10,2013-01-07 22:52:00,
2013-01-07 17:07:00,31.4,24.0,29.81,SE,128,1.0,9.0,73,0.00,,,0.02,weatherlink.com 1.10,2013-01-07 23:07:00,
2013-01-07 17:22:00,30.8,23.0,29.81,SE,129,1.0,9.0,74,0.00,,,0.02,weatherlink.com 1.10,2013-01-07 23:22:00,
2013-01-07 17:37:00,30.5,23.0,29.82,SE,141,3.0,9.0,74,0.00,,,0.02,weatherlink.com 1.10,2013-01-07 23:37:00,
2013-01-07 17:52:00,30.2,23.0,29.83,ESE,115,5.0,9.0,75,0.00,,,0.02,weatherlink.com 1.10,2013-01-07 23:52:00,
2013-01-07 18:07:00,30.2,24.0,29.84,SE,136,4.0,7.0,76,0.00,,,0.02,weatherlink.com 1.10,2013-01-08 00:07:00,
2013-01-07 18:22:00,30.0,23.0,29.84,ESE,119,1.0,8.0,76,0.00,,,0.02,weatherlink.com 1.10,2013-01-08 00:22:00,
2013-01-07 18:37:00,29.8,23.0,29.85,SE,127,4.0,8.0,77,0.00,,,0.02,weatherlink.com 1.10,2013-01-08 00:37:00,
2013-01-07 18:52:00,29.6,24.0,29.85,SE,124,5.0,10.0,78,0.00,,,0.02,weatherlink.com 1.10,2013-01-08 00:52:00,
2013-01-07 19:07:00,29.7,23.0,29.86,ESE,120,3.0,10.0,77,0.00,,,0.02,weatherlink.com 1.10,2013-01-08 01:07:00,
2013-01-07 19:22:00,29.7,24.0,29.86,SE,127,1.0,8.0,78,0.00,,,0.02,weatherlink.com 1.10,2013-01-08 01:22:00,
2013-01-07 19:37:00,29.6,24.0,29.87,SE,142,4.0,8.0,78,0.00,,,0.02,weatherlink.com 1.10,2013-01-08 01:37:00,
2013-01-07 19:52:00,29.4,23.0,29.87,SE,136,2.0,10.0,78,0.00,,,0.02,weatherlink.com 1.10,2013-01-08 01:52:00,
2013-01-07 20:07:00,29.2,23.0,29.87,ESE,121,5.0,8.0,78,0.00,,,0.02,weatherlink.com 1.10,2013-01-08 02:07:00,
2013-01-07 20:22:00,28.9,23.0,29.88,ESE,103,7.0,9.0,79,0.00,,,0.02,weatherlink.com 1.10,2013-01-08 02:22:00,
2013-01-07 20:37:00,28.8,23.0,29.88,SE,125,3.0,11.0,78,0.00,,,0.02,weatherlink.com 1.10,2013-01-08 02:37:00,
2013-01-07 20:52:00,28.7,23.0,29.89,SE,127,1.0,8.0,78,0.00,,,0.02,weatherlink.com 1.10,2013-01-08 02:52:00,
2013-01-07 21:07:00,28.6,23.0,29.89,ESE,120,4.0,6.0,79,0.00,,,0.02,weatherlink.com 1.10,2013-01-08 03:07:00,
2013-01-07 21:22:00,28.6,23.0,29.90,ESE,120,2.0,5.0,79,0.00,,,0.02,weatherlink.com 1.10,2013-01-08 03:22:00,
2013-01-07 21:37:00,28.5,23.0,29.90,SE,139,1.0,4.0,80,0.00,,,0.02,weatherlink.com 1.10,2013-01-08 03:37:00,
2013-01-07 21:52:00,28.5,23.0,29.90,SSE,149,2.0,5.0,80,0.00,,,0.02,weatherlink.com 1.10,2013-01-08 03:52:00,
2013-01-07 22:07:00,28.3,23.0,29.91,SE,124,1.0,3.0,81,0.00,,,0.02,weatherlink.com 1.10,2013-01-08 04:07:00,
2013-01-07 22:22:00,28.2,23.0,29.91,SE,137,2.0,3.0,81,0.00,,,0.02,weatherlink.com 1.10,2013-01-08 04:22:00,
2013-01-07 22:37:00,28.1,23.0,29.91,SE,142,3.0,4.0,82,0.00,,,0.02,weatherlink.com 1.10,2013-01-08 04:37:00,
2013-01-07 22:52:00,27.9,23.0,29.91,SE,124,0.0,3.0,81,0.00,,,0.02,weatherlink.com 1.10,2013-01-08 04:52:00,
2013-01-07 23:22:00,27.5,23.0,29.91,SE,132,0.0,3.0,82,0.00,,,0.02,weatherlink.com 1.10,2013-01-08 05:22:00,
2013-01-07 23:37:00,27.1,22.0,29.91,SE,124,0.0,4.0,82,0.00,,,0.02,weatherlink.com 1.10,2013-01-08 05:37:00,
2013-01-07 23:53:00,26.6,22.0,29.92,ESE,117,0.0,2.0,82,0.00,,,0.02,weatherlink.com 1.10,2013-01-08 05:53:00,